Regional Weather Roundup
Issued by NWS

Home | Current Version | Previous Version | Graphics & Text | Print | Product List | Glossary On
Versions: 1 2 3 4 5 6 7 8 9 10 11 12 13 14 15 16 17 18 19 20 21 22 23 24 25 26 27 28 29 30 31 32 33 34 35 36 37 38 39 40 41 42 43 44 45 46 47 48 49 50
000
ASUS45 KTFX 180310
RWRMT
MONTANA REGIONAL WEATHER ROUNDUP
NATIONAL WEATHER SERVICE GREAT FALLS MT
800 PM MST TUE JAN 17 2017

NOTE: "FAIR" INDICATES FEW OR NO CLOUDS BELOW 12000 FEET WITH NO
SIGNIFICANT WEATHER AND/OR OBSTRUCTIONS TO VISIBILITY.

MTZ001>007-043-180400-
WEST OF THE DIVIDE

CITY           SKY/WX    TMP DP  RH WIND       PRES   REMARKS
KALISPELL      CLOUDY    21  17  84 S3        29.88F
MISSOULA       PTCLDY    15   9  76 SE9       29.96F WCI   3
BUTTE          CLOUDY    14   6  70 SE5       29.93F
MULLAN PASS    MOCLDY    29  16  58 VRB3      29.81S
ANACONDA         N/A     34  14  44 SE13      29.89F WCI  25
DEER LODGE       N/A     16   9  73 W6        29.90F WCI   7
EUREKA           N/A     28  23  80 CALM      29.86F
HAMILTON         N/A     12   7  79 NE3       29.93S
RONAN            N/A     12   7  81 N1        29.92F
THOMPSON FALLS   N/A     22  15  74 E7        29.95F WCI  14
$$

MTZ008-052>055-180400-
SOUTHWEST MONTANA

CITY           SKY/WX    TMP DP  RH WIND       PRES   REMARKS
BOZEMAN        CLOUDY    12   6  77 CALM      29.97F
DILLON         CLOUDY    27   9  46 SE10      29.99F WCI  17
W YELLOWSTONE  CLOUDY     1   0  92 CALM      30.14R
ENNIS          CLEAR     28  16  59 S23G35    30.05F WCI  14
TWIN BRIDGES     N/A     20   7  57 SE8       29.98F WCI  10
$$

MTZ009-010-012-014-046-048-049-054-180400-
EAST SLOPES AND CENTRAL MONTANA

CITY           SKY/WX    TMP DP  RH WIND       PRES   REMARKS
CUT BANK       CLOUDY    42  27  55 SW24G31   29.63F
GREAT FALLS    CLOUDY    39  23  52 SW22      29.75S WCI  29
MALMSTROM AFB  CLOUDY    39  28  63 S23       29.75F WCI  29
HELENA         CLOUDY    11   4  73 SW7       29.92F WCI   0
AUGUSTA          N/A     33  24  70 E8        29.75F WCI  26
BOWMANS CRNR     N/A     30  20  65 S23       29.74F WCI  17
CHOTEAU          N/A     45  27  49 SW21      29.71F
CONRAD           N/A     37  33  85 S5        29.74F
POWER            N/A     39  26  59 SW24      29.71F WCI  28
RAYNESFORD       N/A     49  26  40 W8        29.78F
ULM              N/A     37  22  53 MISG      29.78F
$$

MTZ011-013-016-021-045-047-050-051-180400-
NORTH CENTRAL MONTANA

CITY           SKY/WX    TMP DP  RH WIND       PRES   REMARKS
HAVRE          CLOUDY    38  30  73 SW14      29.67R WCI  30
LEWISTOWN      CLOUDY    37  30  75 SW12      29.80S WCI  29
N BAR RANCH      N/A     39  30  70 SW5       29.82R
CHINOOK          N/A     43  28  56 W9        29.68R
DENTON           N/A     40  31  70 S18G25    29.72F
FORT BENTON      N/A     43  27  52 MISG      29.74F
GEYSER           N/A     41  29  63 SW9       29.78S
GRASS RANGE      N/A     46  31  57 W28       29.73R
JUDITH GAP       N/A     44  27  51 SW23      29.81S
ROY              N/A     43  33  67 MISG      29.72R
STANFORD         N/A     48  29  47 SW3       29.79S
WINIFRED         N/A     45  31  57 SW7       29.76F
$$

MTZ017>020-022>027-061-062-180400-
NORTHEAST MONTANA

CITY           SKY/WX    TMP DP  RH WIND       PRES   REMARKS
GLASGOW        CLOUDY    29  22  75 E7        29.68F WCI  22
JORDAN           N/A     38  29  70 W9        29.75S WCI  31
SIDNEY         CLOUDY    29  22  75 SW18      29.73F WCI  16
WOLF POINT     CLOUDY    19  14  81 CALM      29.71S
PLENTYWOOD       N/A     41  28  60 W14       29.66R
POPLAR           N/A     32  25  74 CALM      29.71F
SCOBEY           N/A     31  19  61 CALM      29.68S
$$

MTZ028>42-056>058-180400-
SOUTHCENTRAL AND SOUTHEAST MONTANA

CITY           SKY/WX    TMP DP  RH WIND       PRES   REMARKS
BAKER          CLOUDY    34  21  59 W17       29.81S WCI  23
BILLINGS       CLOUDY    32  12  43 SW20      29.87S WCI  20
LIVINGSTON     CLOUDY    41  18  39 W25G37    29.90R
MILES CITY     CLOUDY    28  17  63 SE9       29.81S WCI  19
BIG TIMBER     CLEAR     41  19  42 W21G30    29.90R
EKALAKA          N/A     40  17  39 SW10      29.83S
FORSYTH          N/A     39  21  48 W5        29.80F
HARLOWTON        N/A     42  21  43 W23       29.83S
LAUREL           N/A     26  12  55 SW14      29.87F WCI  14
$$

REGIONAL REPORTS...DAKOTAS

CITY           SKY/WX    TMP DP  RH WIND       PRES   REMARKS
WILLISTON      CLOUDY    27  20  75 SE3       29.72S
MINOT          CLOUDY    38  25  59 SW16      29.66R WCI  29
DICKINSON      CLOUDY    29  21  72 W12       29.74F WCI  19
BEACH            N/A     37  21  52 W18       29.80R WCI  27
CROSBY           N/A     32  27  80 SW21      29.65F WCI  20
TIOGA            N/A     32  27  80 SW21      29.70R WCI  20
WATFORD CITY     N/A     30  23  74 SW14      29.73S WCI  20
BISMARCK       CLOUDY    31  19  61 SW7       29.76S WCI  24
GRAND FORKS    CLOUDY    22  16  78 S15       29.73R WCI   9
FARGO          CLOUDY    23  18  81 S18       29.80F WCI   9
BUFFALO SD       N/A     32  19  58 W9        29.77S WCI  24
RAPID CITY     CLOUDY    31  11  43 CALM      29.89S
$$

REGIONAL REPORTS...WYOMING/IDAHO/WASHINGTON

CITY           SKY/WX    TMP DP  RH WIND       PRES   REMARKS
GILLETTE       CLOUDY    37  21  52 SW18      29.89F WCI  27
SHERIDAN       CLOUDY    21  13  71 SE7       29.87F WCI  12
BUFFALO WY     CLOUDY    41  20  43 SW6       29.90F
CODY           CLOUDY    10   5  80 S6        29.91  WCI   0
YELLOWSTONE LA   N/A      1  -2  87 CALM      30.12R
IDAHO FALLS    CLOUDY     5   1  83 E7        30.22S WCI  -7
SALMON         CLOUDY    -8  -9  92 CALM      30.23S
BOISE          CLEAR      7   2  80 NW5       30.21F HAZE
SPOKANE        CLOUDY    26  21  81 E3        29.83F
$$

REGIONAL REPORTS...ALBERTA

CITY           SKY/WX    TMP DP  RH WIND       PRES   REMARKS
EDMONTON       MOCLDY    37  25  60 S3        29.27S
CALGARY        MOCLDY    39  30  70 CALM      29.42F
LETHBRIDGE     MOCLDY    37  32  81 SW12      29.57F WCI  30
MEDICINE HAT   PTCLDY    43  32  65 S22G30    29.55R
WATERTON GATE    N/A     45  30  57 SW21G37     N/A
CARDSTON         N/A     43  32  65 SE6         N/A
MILK RIVER       N/A     41  32  70 SE9G17      N/A
$$

REGIONAL REPORTS...SASKATCHEWAN

CITY           SKY/WX    TMP DP  RH WIND       PRES   REMARKS
SWIFT CURRENT  CLEAR     41  32  70 W17       29.53S
REGINA         CLEAR     36  30  80 W15       29.54F WCI  26
SASKATOON      PTCLDY    36  30  80 SW12      29.46S WCI  27
CYPRESS HILLS    N/A     41  27  56 W17G28      N/A
VAL MARIE        N/A     37  28  70 SW15        N/A  WCI  28
ROCKGLEN         N/A     37  28  70 SW21        N/A  WCI  27
ASSINIBOIA       N/A     34  30  86 SE3         N/A
$$



USA.gov is the U.S. government's official web portal to all federal, state and local government web resources and services.